Terminal Aerodrome Forecast
Issued by NWS Jacksonville, FL

Home | Current Version | Previous Version | Text Only | Print | Product List | Glossary On
Versions: 1 2 3 4 5 6 7 8 9 10 11 12 13 14 15 16 17 18 19 20 21 22 23 24 25 26 27 28 29 30 31 32
000
FTUS42 KJAX 240842 AAC
TAFGNV
TAF AMD
KGNV 240842Z 2409/2506 26007KT P6SM SCT020
      TEMPO 2410/2412 5SM BR BKN020
     FM241400 26012KT P6SM SCT040=

USA.gov is the U.S. government's official web portal to all federal, state and local government web resources and services.